Location: Cucq
(50.4773°N, 1.6202°E)
Time: 08:25:02
(UTC+00:00)

Cosmos 2227 Rocket - Pass Details

Date: 07 August 2020
Orbit: 841 x 843 km, 71.0° (Epoch: 27 September)

Event Time Altitude Azimuth Distance (km) Brightness Sun altitude
Exits shadow 03:15:33 12° 249° (WSW) 2,347 3.9 -10.6°
Maximum altitude 03:20:21 35° 312° (NW) 1,336 3.2 -10.0°
Drops below altitude 10° 03:25:32 10° 18° (NNE) 2,473 5.6 -9.4°
Sets 03:28:13 0° 28° (NNE) 3,411 6.8 -9.1°
